Regional Weather Roundup
Issued by NWS

Home | Current Version | Previous Version | Text Only | Print | Product List | Glossary Off
Versions: 1 2 3 4 5 6 7 8 9 10 11 12 13 14 15 16 17 18 19 20 21 22 23 24 25 26 27 28 29 30 31 32 33 34 35 36 37 38 39 40 41 42 43 44 45 46 47 48

000
ASUS45 KBOU 222007
RWRCO

WEATHER ROUNDUP FOR COLORADO
NATIONAL WEATHER SERVICE DENVER/BOULDER CO
200 PM MDT SAT APR 22 2017

NOTE: "FAIR" INDICATES FEW OR NO CLOUDS BELOW 12000 FEET WITH NO
SIGNIFICANT WEATHER AND/OR OBSTRUCTIONS TO VISIBILITY.

COZ001>005-013-030-031-222100-
...NORTHWEST COLORADO...

CITY           SKY/WX    TMP DP  RH WIND       PRES   REMARKS
CRAIG          FAIR      52  22  30 N6        30.23F
HAYDEN         FAIR      52  23  32 E9        30.23F
MEEKER         FAIR      54  23  30 VRB7      30.21F
MOUNT WERNER   NOT AVBL
STEAMBOAT SPGS FAIR      49  26  41 E8        30.23F
WALDEN           N/A     43  21  42 SE5       30.27F
$$

COZ006>008-011-222100-
...WEST CENTRAL VALLEYS...

CITY           SKY/WX    TMP DP  RH WIND       PRES   REMARKS
GRAND JUNCTION FAIR      63  17  17 SE10      30.16F
MONTROSE       FAIR      57  17  21 CALM      30.20F
EAGLE          PTSUNNY   52  18  25 CALM      30.25F
RIFLE          FAIR      57  18  21 CALM      30.20F
DELTA          FAIR      63  14  14 S5        30.19F
NUCLA          FAIR      61  18  18 NW12      30.19F
$$

COZ017>023-064>068-222100-
...SOUTHWEST COLORADO...

CITY           SKY/WX    TMP DP  RH WIND       PRES   REMARKS
DURANGO        FAIR      57  13  17 VRB5      30.17F
CORTEZ         FAIR      62  18  18 SW7       30.16F
PAGOSA SPRINGS FAIR      55   5  13 SE5       30.20S
TELLURIDE      FAIR      50  15  24 W8        30.24F
WOLF CREEK PAS FAIR      34  12  40 SW8       30.37S WCI  27
$$

COZ009-010-012-014-032>034-037-058>063-222100-
...CENTRAL COLORADO...

CITY           SKY/WX    TMP DP  RH WIND       PRES   REMARKS
ASPEN          FAIR      49  18  29 VRB7      30.22F
BUENA VISTA    FAIR      49  10  20 E5        30.26S
COPPER MTN     CLOUDY    34  10  37 S8        30.34R WCI  27
BERTHOUD PASS  PTSUNNY   18   5  57 S3        30.35R
COTTONWOOD PAS FAIR      41   9  26 SE5       30.29F
GUNNISON       FAIR      50  12  21 VRB3      30.22F
KREMMLING      FAIR      54  19  26 CALM      30.26F
LEADVILLE      PTSUNNY   37  10  32 S3        30.27F
MONARCH PASS   FAIR      30  18  59 E10G18    30.43R WCI  21
SALIDA         PTSUNNY   53  21  28 E7        30.33F
SUNLIGHT       PTSUNNY   30  19  64 CALM      30.35F
WILKERSON PASS LGT SNOW  27  23  86 E3        30.37R
$$

COZ069>075-222100-
...SAN LUIS VALLEY/SANGRE DE CRISTO MOUNTAINS...

CITY           SKY/WX    TMP DP  RH WIND       PRES   REMARKS
ALAMOSA        PTSUNNY   51  15  23 SE8       30.21F
LA VETA PASS   SNOW      30  28  93 N13       30.42S VSB 1/4 WCI  20
SAGUACHE       FAIR      54  14  20 S5G12     30.21F
$$

COZ035-036-038>040-222100-
...NORTHERN COLORADO FRONT RANGE...

CITY           SKY/WX    TMP DP  RH WIND       PRES   REMARKS
DENVER INTL AP PTSUNNY   50  30  46 VRB3      30.28F
DMNS CITY PARK   N/A     54  32  44 E16       30.27F
AURORA         PTSUNNY   51  31  46 W6        30.28F
FRONT RANGE AP PTSUNNY   52  32  46 CALM      30.29F
ERIE MUNI ARPT FAIR      53  31  44 NW3       30.28F
BOULDER MUN AP FAIR      50  34  53 CALM      30.28F
CENTENNIAL     FAIR      50  33  52 VRB5      30.28F
BROOMFIELD     MOSUNNY   50  32  50 NE5       30.28F
FORT COLLINS   PTSUNNY   51  36  56 S7        30.29F
LONGMONT       FAIR      55  36  48 CALM      30.30F HAZE
$$

COZ041-046-047-076>085-087-088-222100-
...PIKES PEAK/PALMER DIVIDE AND SOUTHERN FOOTHILLS...

CITY           SKY/WX    TMP DP  RH WIND       PRES   REMARKS
COLO. SPRINGS  FAIR      44  37  76 CALM      30.31F
A. F. ACADEMY  PTSUNNY   46  33  62 S6        30.28F
SCHRIEVER AFB  RAIN      37  36  93 NE7       30.33R
ELLICOTT       FAIR     N/A N/A N/A SW5       30.30S
FALCON         CLOUDY    41  37  84 S9        30.32S
FORT CARSON    DRIZZLE   44  34  66 S5        30.31S
LIMON          FAIR      51  29  42 VRB5      30.29F
MONUMENT HILL  CLOUDY    41  28  60 CALM      30.31F
TRINIDAD       PTSUNNY   46  31  55 CALM      30.30F
$$

COZ042>045-048>051-090-091-222100-
...NORTHEAST COLORADO...

CITY           SKY/WX    TMP DP  RH WIND       PRES   REMARKS
GREELEY ARPT   CLOUDY    52  36  54 NE5       30.29F
AKRON          PTSUNNY   53  34  48 VRB5      30.29F
BURLINGTON     NOT AVBL
WRAY           NOT AVBL
STERLING       FAIR      55  36  47 SW5       30.28F
HOLYOKE        PTSUNNY   57  34  41 N3        30.29F
FORT MORGAN    PTSUNNY   54  32  43 CALM      30.30S
$$

COZ086-089-092>099-222100-
...SOUTHEAST COLORADO...

CITY           SKY/WX    TMP DP  RH WIND       PRES   REMARKS
PUEBLO         CLOUDY    51  36  56 VRB5      30.30F
LA JUNTA       FAIR      54  34  46 W5        30.29F
LAMAR          CLOUDY    53  34  48 VRB3      30.28F
SPRINGFIELD      N/A     51  31  46 N14       30.28F
$$



USA.gov is the U.S. government's official web portal to all federal, state and local government web resources and services.